Overview Statistics Trail Chart Weather Telemetry Raw packets
 

This is the latest recevied weather packets stored in our database for station/object IW2NTF-3. If no packets are shown the sender has not sent any weather packets the latest 10 day(s).

<< 533 534 535 536 537 538 539 >>
Time Temp. Humidity Pressure Rain* Wind** Luminosity Snow
1787931603 22.78° C 82% 1012.7 hPa 0.51 mm - 452 W/m² -
1787931543 22.78° C 82% 1012.5 hPa 0.51 mm - 441 W/m² -
1787931483 22.78° C 82% 1013.5 hPa 0.51 mm - 438 W/m² -
1787931423 22.78° C 82% 1013.5 hPa 0.51 mm - 438 W/m² -
1787931364 22.78° C 82% 1014 hPa 0.51 mm - 438 W/m² -
1787931303 22.78° C 82% 1014 hPa 0.51 mm - 413 W/m² -
1787931243 22.78° C 82% 1014.6 hPa 0.51 mm - 120 W/m² -
1787931183 22.78° C 82% 1013.4 hPa 0.51 mm - 120 W/m² -
1787931123 22.78° C 81% 1013.4 hPa 0.51 mm - 116 W/m² -
1787931063 22.78° C 82% 1013.2 hPa 0.51 mm - 127 W/m² -
1787931003 22.78° C 82% 1013.2 hPa 0.51 mm - 383 W/m² -
1787930943 22.78° C 82% 1013 hPa 0.51 mm - 383 W/m² -
1787930883 22.78° C 81% 1013 hPa 0.51 mm - 135 W/m² -
1787930823 22.78° C 81% 1013 hPa 0.51 mm - 135 W/m² -
1787930763 22.78° C 80% 1013.4 hPa 0.51 mm - 107 W/m² -
1787930703 22.78° C 80% 1013.4 hPa 0.51 mm - 91 W/m² -
1787930643 23.33° C 80% 1013.7 hPa 0.51 mm - 76 W/m² -
1787930583 23.33° C 79% 1013.5 hPa 0.51 mm - 60 W/m² -
1787930523 23.33° C 78% 1013.5 hPa 0.51 mm - 47 W/m² -
1787930463 23.33° C 78% 1012.9 hPa 0.51 mm - 40 W/m² -
1787930403 23.89° C 77% 1012.8 hPa 0.51 mm - 42 W/m² -
1787930343 23.89° C 76% 1012.8 hPa 0.25 mm - 47 W/m² -
1787930283 24.44° C 75% 1012.6 hPa 0 mm - 53 W/m² -
1787930223 24.44° C 75% 1012.6 hPa 0 mm - 62 W/m² -
1787930163 25° C 75% 1012.4 hPa 0 mm - 69 W/m² -

* Rain latest hour (hover to see other rain measurements)
** Current wind speed in m/s (hover to see current wind gust speed)